Regional Weather Roundup
Issued by NWS

Home | Current Version | Previous Version | Text Only | Print | Product List | Glossary Off
Versions: 1 2 3 4 5 6 7 8 9 10 11 12 13 14 15 16 17 18 19 20 21 22 23 24 25 26 27 28 29 30 31 32 33 34 35 36 37 38 39 40 41 42 43 44 45 46 47 48 49 50

000
ASUS43 KMKX 270359
RWRWI

WISCONSIN REGIONAL WEATHER ROUNDUP
NATIONAL WEATHER SERVICE MILWAUKEE/SULLIVAN WI
1000 PM CST THU FEB 26 2015

NOTE: "FAIR" INDICATES FEW OR NO CLOUDS BELOW 12,000 FEET WITH NO
SIGNIFICANT WEATHER AND/OR OBSTRUCTIONS TO VISIBILITY.

WIZ001-002-006>008-014>016-023>028-270500-
NORTHWEST WISCONSIN

CITY           SKY/WX    TMP DP  RH WIND       PRES   REMARKS
SUPERIOR ARPT  CLEAR      3 -11  51 W8        30.45R WCI -11
ASHLAND        CLEAR     -1 -12  59 SW7       30.41R WCI -14
HAYWARD        FAIR      -9 -18  64 CALM      30.39R
SIREN          CLEAR     -1 -11  63 CALM      30.45R
CUMBERLAND     CLEAR     -4 -13  65 W8        30.40R WCI -19
RICE LAKE      CLEAR     -2 -12  62 W3        30.43R
CHETEK         CLEAR      1 -10  60 MISG      30.42R
LADYSMITH      CLEAR     -3 -11  68 W3        30.39S
EAU CLAIRE     CLEAR      0 -11  59 NW6       30.44R WCI -12
MENOMONIE      CLEAR      2 -10  58 W3        30.45R
NEW RICHMOND   CLEAR     -2 -11  67 W6        30.45S WCI -14
OSCEOLA        CLEAR      1  -9  63 W5        30.49S WCI  -9
$$

WIZ003>005-009-010-017-018-270500-
NORTH CENTRAL WISCONSIN

CITY           SKY/WX    TMP DP  RH WIND       PRES   REMARKS
MANITOWISH WTR CLEAR    -12 -17  77 W3        30.29S
ARBOR VITAE    CLEAR     -4 -11  70 CALM      30.30R
WOODRUFF       CLEAR     -4 -11  70 CALM      30.30R
RHINELANDER    CLEAR     -9 -16  71 W5        30.31R WCI -20
EAGLE RIVER    CLEAR    -12 -18  75 CALM      30.29R
LAND O LAKES   CLEAR    -18 -23  76 CALM      30.29R
PHILLIPS       CLEAR     -9 -16  72 CALM      30.33S
TOMAHAWK       FAIR     -12 -17  77 CALM      30.33R
MEDFORD        CLEAR     -2 -12  63 W5        30.34R WCI -13
MERRILL        CLEAR     -5 -13  68 CALM      30.35R
$$

WIZ029-030-035-036-043>047-270500-
CENTRAL WISCONSIN

CITY           SKY/WX    TMP DP  RH WIND       PRES   REMARKS
WAUSAU         FAIR       1 -10  60 NW5       30.35R WCI  -9
MOSINEE        CLEAR      1  -9  60 NW7       30.37R WCI -11
MARSHFIELD     CLEAR      0 -11  59 W6        30.37R WCI -12
STEVENS POINT  CLEAR      1 -10  61 W5        30.39R WCI  -9
WAUPACA        CLEAR      6  -7  54 W6        30.40R WCI  -4
WAUTOMA        NOT AVBL
WISC RAPIDS    CLEAR      1 -11  57 NW7       30.42R WCI -12
CAMP DOUGLAS   NOT AVBL
$$

WIZ011>013-019>022-031-037>040-048>050-270500-
NORTHEAST WISCONSIN

CITY           SKY/WX    TMP DP  RH WIND       PRES   REMARKS
ANTIGO         CLEAR     -3 -11  67 NW5       30.32R WCI -13
SHAWANO        CLEAR      7  -8  49 NW3       30.38R
OCONTO         CLEAR     -6 -10  85 CALM      30.39R
STURGEON BAY   CLEAR      1  -9  60 W5        30.39R WCI  -8
GREEN BAY      CLEAR      3  -5  69 W5        30.39R WCI  -6
MANITOWOC      NOT AVBL
APPLETON       CLEAR      1  -9  60 W10       30.38R WCI -14
CLINTONVILLE   CLEAR      3  -9  55 W7        30.38R WCI  -9
OSHKOSH        CLEAR      5  -7  57 W8        30.39R WCI  -8
$$

WIZ032>034-041-042-053>061-270500-
SOUTHWEST WISCONSIN

CITY           SKY/WX    TMP DP  RH WIND       PRES   REMARKS
LA CROSSE      CLEAR      2  -8  63 CALM      30.49R
SPARTA         CLEAR     -8 -13  77 CALM      30.46R
VIROQUA        CLEAR      1  -8  67 W3        30.40R
BOSCOBEL       CLEAR     -3  -9  75 W3        30.49R
PRAIRIE DU CHI CLEAR      1  -9  63 W5        30.50R WCI  -9
PLATTEVILLE    CLEAR     -2  -9  71 W5        30.44R WCI -12
$$

WIZ056-057-062-063-064-067-068-270500-
SOUTH CENTRAL WISCONSIN

CITY           SKY/WX    TMP DP  RH WIND       PRES   REMARKS
REEDSBURG      CLEAR      3  -8  60 NW5       30.43R WCI  -6
BARABOO/DELLS  CLEAR      2  -8  61 NW5       30.41R WCI  -7
LONE ROCK      NOT AVBL
MINERAL POINT  CLEAR      3  -8  60 NW3       30.41R
MADISON        CLEAR      2  -7  66 NW5       30.42R WCI  -8
MIDDLETON      CLEAR      3  -8  59 NW5       30.42R WCI  -6
WATERTOWN      CLEAR     -3  -8  79 CALM      30.40R
MONROE         CLEAR      5  -4  66 NW8       30.39R WCI  -8
JANESVILLE     FAIR       0  -6  78 CALM      30.42R
$$

WIZ051-052-058>065-066-070>072-270500-
SOUTHEAST WISCONSIN

CITY           SKY/WX    TMP DP  RH WIND       PRES   REMARKS
MILWAUKEE      CLEAR      8  -5  55 W5        30.41R WCI   0
WAUKESHA       CLEAR      0  -6  78 CALM      30.40R
MILWAUKEE/TIMM CLEAR      3  -6  66 CALM      30.42R
RACINE         CLEAR      5  -7  57 W6        30.43R WCI  -6
BURLINGTON     CLEAR     -8 -13  78 CALM      30.41R
KENOSHA        CLEAR     -1 -10  65 NW5       30.41R WCI -11
FOND DU LAC    CLEAR      5  -7  57 W10       30.40R WCI -10
SHEBOYGAN      CLEAR      0  -7  72 W6        30.39R WCI -12
WEST BEND      CLEAR      0  -8  71 W3        30.39R
JUNEAU         FAIR       3  -7  62 NW3       30.41R
$$

LSZ147-162-270500-
LAKE SUPERIOR

STATION/POSITION TIME  TEMP    WIND        PRES    WAVE
                       AIR SEA DIR/SP/G            HT/PER
                 (UTC) (F)     (DEG/KT/KT) (MB)    (FT/S)
DEVILS ISLAND    0300    8     300/ 14/ 17 1031.0R
PORT WING        0300    9     300/ 15/ 18 1030.1R
SAXON HARBOR     0200    2      CALM  /  7 1029.1
$$

LMZ867-665-643>646-270500-
LAKE MICHIGAN

STATION/POSITION TIME  TEMP    WIND        PRES    WAVE
                       AIR SEA DIR/SP/G            HT/PER
                 (UTC) (F)     (DEG/KT/KT) (MB)    (FT/S)
NORTHPORT PIER   0324    3     240/  3/  6 1028.4R
SISTER BAY       0313    1        CALM       N/A
KEWAUNEE LAKESHO 0300    2     300/  2/  4 1027.7R
SHEBOYGAN LAKESH 0300    8     260/  6/  6 1030.9R
PORT WASHINGTON  0300    7     290/  4/  5 1030.1R
MILWAUKEE LAKESH 0300   10     300/  4/  6   N/A
KENOSHA   LAKESH 0300    7     310/  6/ 10 1029.5R
$$

TC  - TEMPERATURE IN CELSIUS
VSB - VISIBILITY IN STATUTE MILES
WCI - WIND CHILL INDEX
HX  - HEAT INDEX



USA.gov is the U.S. government's official web portal to all federal, state and local government web resources and services.